Theta_e
284 284 284 283 284 284 284 284 285 280 279 281 282 283 283 282 281 281 280 280 283 284 286 287 288 290 291 291 292 293 294 295 295 296 297 298 299 301
283 283 283 283 283 283 283 283 282 283 281 280 281 282 281 280 280 280 279 280 280 282 284 286 287 289 289 290 290 291 292 293 294 294 295 296 297 298
282 282 281 282 282 281 282 282 281 280 280 277 279 279 278 278 278 279 279 280 281 281 283 285 286 286 287 288 288 289 290 290 291 292 293 293 294 296
281 280 280 280 280 280 280 280 279 279 278 277 276 277 277 277 277 277 278 279 280 281 283 285 285 285 286 286 287 287 288 288 288 289 290 291 292 293
281 280 280 279 279 279 278 278 277 277 277 276 275 275 276 277 277 278 278 279 279 281 282 282 283 284 285 285 286 286 285 286 286 287 288 289 290 291
281 281 280 279 278 278 277 276 276 276 275 274 273 273 274 276 276 276 277 278 278 279 280 281 281 282 283 284 284 283 284 285 286 287 288 288 289 289
280 280 279 279 281 279 277 275 275 274 274 273 272 273 274 274 275 277 275 277 278 279 279 280 279 279 279 280 280 281 283 284 285 285 286 286 287 287
278 279 279 278 280 281 280 279 276 273 271 272 273 272 274 275 276 275 275 275 275 280 277 276 277 277 278 279 280 282 283 283 284 284 285 286 286 286
279 278 276 277 278 279 281 280 279 279 276 274 274 275 275 276 276 275 275 275 275 277 274 273 277 276 278 278 280 281 282 283 283 283 284 284 285 285
279 278 277 276 277 277 278 277 277 277 276 276 277 277 277 277 277 277 276 274 273 273 274 271 275 275 277 277 279 281 281 282 282 282 282 282 283 283
278 278 277 276 278 280 277 276 275 275 279 280 280 279 279 280 280 275 272 270 269 271 273 272 273 273 274 275 277 279 280 280 280 280 281 281 281 281
277 276 278 277 280 281 276 276 274 275 276 277 278 279 280 277 277 275 272 268 268 267 273 271 271 272 269 274 276 276 276 278 279 279 280 280 280 278
276 275 276 280 280 282 279 275 275 276 276 274 275 274 273 273 272 273 273 271 268 268 272 272 271 270 269 269 272 274 275 276 276 276 278 279 279 279
275 276 275 280 281 282 279 276 278 276 274 272 271 270 270 270 271 272 272 272 272 271 272 272 270 269 268 267 267 272 274 274 275 276 276 277 278 278
277 277 277 280 281 282 281 278 277 272 271 268 268 269 270 270 271 270 270 270 270 270 271 271 270 270 269 268 267 269 270 273 274 274 275 275 274 274
278 277 277 279 280 280 279 279 274 272 270 270 269 269 269 268 268 269 267 268 267 267 269 270 270 270 269 269 269 268 271 269 272 273 273 273 274 274
275 275 275 276 276 276 275 271 270 269 268 268 267 266 267 267 267 267 267 266 264 264 265 267 269 270 270 269 267 268 269 269 272 272 272 271 273 273
273 273 273 275 271 272 270 268 268 267 268 267 266 266 265 266 265 266 265 264 263 264 264 266 266 266 267 268 271 268 269 270 271 272 271 269 269 272
273 273 273 273 271 271 269 268 266 267 267 267 266 265 264 264 263 263 264 264 263 263 264 265 264 264 262 261 267 271 268 269 269 268 270 270 269 271
274 273 272 271 269 268 268 267 266 266 266 265 265 264 263 262 261 262 262 261 261 262 262 263 264 265 263 263 263 266 270 268 268 268 269 270 272 274
272 271 270 269 269 268 267 267 266 264 264 263 262 261 260 260 259 260 261 261 261 261 260 262 265 268 267 266 263 263 267 270 271 269 269 268 267 268
271 270 269 269 268 267 265 264 262 262 261 260 259 259 259 259 260 259 259 260 260 261 262 263 266 266 265 263 261 262 264 267 269 271 272 271 267 264
270 267 266 265 264 263 262 261 260 260 259 258 258 258 257 257 258 259 260 259 259 260 261 263 264 264 263 263 262 262 262 263 265 265 267 271 272 272
Wind_Speed
9 9 7 6 6 5 4 4 4 6 7 7 5 6 4 2 3 5 5 6 10 10 12 13 12 13 15 16 17 17 18 18 19 21 22 22 23 24
8 11 8 7 8 7 6 5 3 4 4 3 5 5 4 2 1 4 4 7 7 9 10 11 12 15 16 16 17 18 18 19 20 21 22 23 24 24
11 13 12 11 8 8 7 6 6 4 4 3 3 5 5 4 3 3 3 5 4 8 11 11 12 11 14 15 16 18 19 19 21 22 24 25 25 25
17 15 14 10 12 11 8 10 9 7 4 6 4 5 5 3 3 5 3 4 7 8 11 13 13 14 16 17 17 19 21 22 22 22 24 25 25 27
19 19 17 17 14 11 11 10 9 8 6 4 4 2 2 2 2 2 4 6 8 13 14 15 14 16 19 20 21 21 21 22 23 23 23 24 25 27
18 19 19 21 19 18 14 13 10 9 8 7 5 4 4 4 4 4 4 4 8 7 9 12 11 14 19 20 19 21 22 20 22 25 26 28 29 29
17 17 17 20 27 23 14 14 14 10 9 8 6 5 5 5 7 4 5 5 10 8 5 7 7 9 8 11 15 17 19 23 22 25 27 28 30 32
17 16 15 19 25 29 26 26 21 17 14 9 9 9 11 7 6 6 5 4 4 6 4 10 7 8 6 6 14 19 21 25 23 24 27 30 31 32
18 17 14 13 17 16 24 24 24 25 19 14 12 11 10 10 8 8 7 6 5 6 9 7 4 8 5 7 16 21 22 24 21 22 26 29 31 32
19 20 20 19 21 19 18 16 15 15 15 12 11 9 8 9 9 7 5 4 5 6 5 5 4 7 7 8 17 20 20 21 21 24 28 30 31 34
17 17 18 18 27 31 18 17 14 13 19 21 15 14 14 15 12 4 3 2 1 2 2 3 4 11 8 7 5 12 20 24 22 22 27 31 34 36
17 18 25 22 33 34 19 18 17 16 14 12 11 14 11 6 8 6 5 4 3 1 3 5 6 7 8 3 5 11 9 18 22 26 29 31 32 17
11 11 12 29 33 33 24 15 15 14 18 10 8 6 6 6 5 6 6 6 4 4 3 4 4 7 4 9 9 10 11 11 11 15 25 29 30 27
13 10 12 31 31 33 25 21 22 16 9 9 8 8 7 6 6 6 6 5 5 7 6 7 6 6 8 10 11 10 12 14 13 13 13 21 28 31
9 14 21 30 30 28 29 25 20 9 9 8 8 7 6 6 7 5 3 3 5 6 6 8 8 10 9 10 13 14 17 14 15 12 12 14 15 15
18 12 16 21 21 18 19 19 10 10 10 9 8 6 5 4 5 4 3 2 2 3 5 7 9 10 10 11 11 16 14 13 17 16 15 17 15 15
14 11 11 13 12 10 8 10 10 9 9 8 8 7 6 5 4 3 2 1 1 3 4 5 9 12 12 15 14 13 16 16 13 16 15 18 17 16
14 14 13 14 14 14 12 10 8 9 8 8 8 7 7 6 4 3 1 2 3 4 5 6 8 10 10 11 20 14 13 15 17 16 16 18 21 15
13 13 15 14 12 11 11 12 9 9 10 8 8 8 7 6 5 3 1 3 4 4 5 6 7 9 11 14 6 15 14 15 17 20 15 16 22 19
12 12 13 13 12 13 12 10 10 10 9 9 8 8 7 6 4 3 2 3 4 5 6 6 7 9 10 14 17 18 22 18 16 19 19 19 22 37
10 10 11 12 12 11 10 9 10 9 8 7 7 6 6 5 4 3 3 5 6 6 7 7 8 14 11 13 14 17 15 21 24 20 20 21 24 22
10 10 9 9 10 10 10 10 9 9 8 5 6 5 5 4 3 3 3 4 5 6 9 8 10 9 9 12 17 21 19 17 18 29 33 33 21 25
11 10 9 8 8 9 10 9 9 8 7 6 6 5 5 4 4 4 3 4 6 8 9 9 9 9 10 12 18 18 25 23 18 19 15 28 35 39
Wind_Direction
196 186 178 171 178 176 161 166 157 172 203 187 171 192 186 206 9 355 349 340 335 331 336 339 341 338 334 330 325 326 325 324 321 317 315 311 308 305
184 184 184 167 177 175 171 169 173 168 152 171 195 184 186 236 238 331 314 308 300 310 323 331 331 335 330 324 327 328 328 324 322 318 313 310 307 304
185 185 182 170 176 177 173 171 175 172 163 148 204 175 209 210 259 292 283 295 291 294 322 323 326 323 312 319 324 324 319 319 320 317 315 312 308 304
184 181 182 169 177 178 180 182 181 177 155 176 179 190 199 244 282 304 308 291 290 297 320 322 318 319 320 320 321 318 319 318 315 313 313 310 309 305
187 185 181 175 178 179 183 181 181 173 171 155 176 240 253 321 311 297 321 312 301 311 322 319 313 312 309 311 315 314 312 315 314 312 310 306 304 303
193 192 183 183 180 176 180 179 175 173 174 177 180 203 245 256 258 291 306 297 287 288 264 261 263 285 290 301 303 299 303 306 306 306 306 305 303 300
196 194 191 191 185 180 173 175 170 170 171 176 185 185 202 200 205 188 247 272 273 251 216 256 272 280 280 282 278 288 295 299 306 307 304 302 301 300
197 197 190 187 188 184 186 180 175 169 175 172 188 205 200 202 197 213 223 238 264 210 302 282 276 269 281 273 284 294 302 300 302 301 300 300 298 295
197 192 187 185 184 184 189 188 192 191 183 174 184 198 187 194 194 205 214 234 245 278 294 266 256 272 279 293 300 295 294 292 300 302 301 300 297 301
198 194 191 182 183 177 177 181 189 195 191 190 189 189 185 189 208 206 199 239 271 267 273 277 313 299 309 302 294 293 295 297 310 306 307 303 303 299
196 197 193 189 184 178 173 173 180 191 198 199 192 196 202 208 210 167 202 199 273 251 307 283 310 314 312 295 281 287 301 307 308 300 302 303 302 301
187 189 194 186 186 182 177 175 182 185 180 189 195 207 206 192 212 207 176 181 189 239 193 331 329 348 323 310 321 299 291 300 298 300 301 299 299 295
201 195 189 191 189 185 178 185 185 166 180 174 171 168 187 207 204 199 186 176 176 213 257 312 296 314 270 301 301 299 296 295 298 294 290 294 294 291
199 189 187 190 191 185 177 186 182 162 163 159 167 185 199 203 198 191 186 189 216 240 270 270 262 281 284 295 292 303 302 297 292 295 292 290 290 287
190 189 187 189 190 189 178 181 179 155 158 152 180 190 193 183 185 187 187 222 257 267 262 262 264 277 275 274 282 292 301 304 297 282 290 289 288 285
186 182 186 188 189 181 179 179 154 160 166 160 169 163 168 193 209 188 177 185 265 288 275 274 273 275 275 270 275 282 283 279 295 292 291 286 281 274
156 156 176 175 178 177 157 135 140 145 152 152 150 169 174 196 208 194 185 132 231 282 301 292 285 281 274 271 274 268 282 281 277 286 290 287 282 279
163 165 180 179 167 164 155 148 153 149 153 150 165 170 174 189 182 197 192 236 268 287 300 300 301 304 283 251 244 276 275 286 294 291 292 286 283 277
183 178 176 173 168 165 162 156 164 163 152 158 170 169 173 171 179 187 224 261 284 302 298 301 299 290 298 294 266 259 286 295 296 294 286 282 285 289
189 183 178 172 159 157 161 162 151 156 162 167 165 168 166 164 165 185 223 272 295 301 299 295 276 283 285 290 294 293 274 280 281 286 293 287 280 286
176 172 165 159 162 160 154 154 151 156 162 160 160 161 159 159 167 188 229 268 287 292 288 287 285 289 285 286 282 285 286 277 279 284 295 293 296 300
157 154 157 154 156 149 142 139 139 141 147 162 154 156 157 168 175 194 232 262 279 282 281 282 294 293 286 283 284 288 293 296 283 280 279 284 293 296
145 131 133 132 131 130 128 131 134 141 157 159 154 165 166 175 193 214 239 262 270 276 279 287 290 292 286 284 286 289 290 295 300 301 284 285 289 289